Miscellaneous Local Product
Issued by NWS Hastings, NE

Home | Current Version | Previous Version | Graphics & Text | Print | Product List | Glossary On
Versions: 1 2 3 4 5 6 7 8 9 10 11 12 13 14 15 16 17 18 19 20 21 22 23 24 25 26 27 28 29 30 31 32 33 34 35 36 37 38 39 40 41 42 43 44 45 46 47 48 49 50
000
AXUS43 KGID 281602
MISGRI

GID CWA HOURLY WEATHER ROUNDUP
NATIONAL WEATHER SERVICE HASTINGS NE
1000 AM CST WED JAN 28 2015

NOTE: "FAIR" INDICATES FEW OR NO CLOUDS BELOW 12,000 FEET WITH NO
SIGNIFICANT WEATHER AND/OR OBSTRUCTIONS TO VISIBILITY.

...SOUTH CENTRAL NEBRASKA...

CITY           SKY/WX    TMP DP  RH WIND       PRES   REMARKS
GRAND ISLAND   MOSUNNY   37  31  78 W5        29.80F WCI  33
HASTINGS       MOSUNNY   38  31  76 W5        29.80R WCI  34
KEARNEY        MOSUNNY   43  32  65 W7        29.82R
ORD            MOSUNNY   37  31  78 CALM      29.77F
YORK           MOSUNNY   39  32  75 W9        29.80R WCI  33
AURORA         MOSUNNY   36  32  85 W7        29.79S WCI  30
LEXINGTON      PTSUNNY   46  35  65 W9        29.83S
HOLDREGE       PTSUNNY   51  34  50 NW16      29.82R
HEBRON         MOSUNNY   39  32  75 CALM      29.78F

...NEBRASKA PANHANDLE...

CITY           SKY/WX    TMP DP  RH WIND       PRES   REMARKS
CHADRON        PTSUNNY   49  34  56 W21G28    29.90S
ALLIANCE       PTSUNNY   47  34  60 W23G29    29.91S
SCOTTSBLUFF      N/A    N/A N/A N/A MISG      29.97S
SIDNEY         PTSUNNY   52  31  44 NW26G37   29.97R

...WESTERN AND NORTH CENTRAL NEBRASKA...

CITY           SKY/WX    TMP DP  RH WIND       PRES   REMARKS
VALENTINE      PTSUNNY   50  33  52 W16       29.78R
AINSWORTH      PTSUNNY   49  32  53 W14       29.76S
ONEILL         PTSUNNY   43  34  72 CALM      29.73F
BROKEN BOW     PTSUNNY   56  34  43 W16G24    29.79F
IMPERIAL       PTSUNNY   51  33  50 NW16G22   29.91S
NORTH PLATTE   PTSUNNY   45  35  68 W10       29.86S
MCCOOK         CLOUDY    51  34  52 W13       29.88S

...EASTERN NEBRASKA...

CITY           SKY/WX    TMP DP  RH WIND       PRES   REMARKS
NORFOLK        PTSUNNY   37  31  78 S6        29.78F WCI  32
SO SIOUX CITY  PTSUNNY   36  31  82 SE13      29.82F WCI  27
TEKAMAH        PTSUNNY   37  32  82 SE16      29.83F WCI  28
COLUMBUS       PTSUNNY   36  28  75 S5        29.81F WCI  32
ALBION         PTSUNNY   34  30  85 CALM      29.79S
OMAHA EPPLEY   PTSUNNY   38  30  73 SE13      29.85S WCI  30
OFFUTT AFB     PTSUNNY   39  31  73 SE13      29.84S WCI  31
MILLARD        PTSUNNY   38  32  78 SE9       29.84S WCI  31
LINCOLN        MOSUNNY   41  31  67 VRB3      29.81F
NEBRASKA CITY  MOSUNNY   39  29  67 SE14      29.82F WCI  31
BEATRICE       MOSUNNY   43  33  67 S6        29.81F
FALLS CITY     SUNNY     46  34  62 SE9       29.85F

...NORTHERN KANSAS...

CITY           SKY/WX    TMP DP  RH WIND       PRES   REMARKS
GOODLAND       CLOUDY    45  32  60 NW13      29.97S
HILL CITY      CLOUDY    57  33  40 NW22G36   29.86F
NORTON         SUNNY     50  30  46 W18G24    29.85
PHILLIPSBURG   SUNNY     50  36  57 W14       29.83S
SMITH CENTER   SUNNY     37  30  75 W5        29.82F WCI  34
BELOIT         SUNNY     45  36  70 W5        29.81R
HAYS           PTSUNNY   54  32  43 NW13      29.85S
RUSSELL        PTSUNNY   49  35  58 W10       29.82F
CONCORDIA      MOSUNNY   53  36  52 S15       29.78F
SALINA         SUNNY     55  36  48 SW13      29.84S
TOPEKA         MOSUNNY   55  38  52 S7        29.88F



USA.gov is the U.S. government's official web portal to all federal, state and local government web resources and services.